KD5HIA Weather Reports


Display with metric or nautical units.
time (UTC)temp
F
wind
direction
speed
MPH
gust
MPH
rain 1hr
in
rain 24hr
in
rain mn
in
humidity
%
barometer
mb
20260505092016 69 225 5.0 9.0 0.00 0.00 0.00 79 1006.9
20260505091016 69 203 7.0 12.0 0.00 0.00 0.00 78 1006.9
20260505090017 70 203 7.0 12.0 0.00 0.00 0.00 78 1007.0
20260505085016 70 225 5.0 12.0 0.00 0.00 0.00 78 1007.2
20260505084016 70 203 5.0 9.0 0.00 0.00 0.00 77 1007.1
20260505083017 70 203 3.0 8.0 0.00 0.00 0.00 77 1007.2
20260505082017 70 225 3.0 7.0 0.00 0.00 0.00 77 1007.2
20260505081016 70 248 4.0 16.0 0.00 0.00 0.00 77 1007.3
20260505080016 70 225 5.0 12.0 0.00 0.00 0.00 76 1007.4
20260505075017 70 203 4.0 9.0 0.00 0.00 0.00 76 1007.4
20260505074017 70 225 5.0 10.0 0.00 0.00 0.00 75 1007.6
20260505073016 70 248 5.0 11.0 0.00 0.00 0.00 75 1007.6
20260505072016 71 225 7.0 14.0 0.00 0.00 0.00 75 1007.8
20260505071017 71 225 4.0 10.0 0.00 0.00 0.00 75 1007.9
20260505070017 71 225 4.0 9.0 0.00 0.00 0.00 74 1007.8
20260505065016 71 203 5.0 12.0 0.00 0.00 0.00 74 1007.8
20260505064017 71 203 8.0 20.0 0.00 0.00 0.00 73 1008.0
20260505063017 72 203 9.0 20.0 0.00 0.00 0.00 73 1008.1
20260505062016 72 203 12.0 20.0 0.00 0.00 0.00 72 1008.0
20260505061017 72 203 10.0 15.0 0.00 0.00 0.00 72 1007.9
20260505060017 72 203 12.0 22.0 0.00 0.00 0.00 72 1008.1
20260505055017 72 203 11.0 18.0 0.00 0.00 0.00 71 1008.1
20260505054017 73 203 13.0 20.0 0.00 0.00 0.00 70 1008.3
20260505053020 73 203 13.0 22.0 0.00 0.00 0.00 70 1008.3
20260505052020 73 203 13.0 23.0 0.00 0.00 0.00 69 1008.0
20260505051020 73 180 14.0 21.0 0.00 0.00 0.00 69 1008.0
20260505041016 75 180 12.0 22.0 0.00 0.00 0.00 66 1007.8
20260505040017 75 203 13.0 22.0 0.00 0.00 0.00 65 1007.9
20260505035016 75 203 13.0 19.0 0.00 0.00 0.00 64 1007.6
20260505034016 76 203 12.0 19.0 0.00 0.00 0.00 63 1007.6
20260505033017 76 180 10.0 17.0 0.00 0.00 0.00 62 1007.5
20260505032017 77 203 11.0 20.0 0.00 0.00 0.00 61 1007.4
20260505031017 77 203 8.0 14.0 0.00 0.00 0.00 60 1007.5
20260505030017 77 203 9.0 15.0 0.00 0.00 0.00 59 1007.3
20260505025017 77 203 11.0 16.0 0.00 0.00 0.00 58 1007.0
20260505024017 78 203 12.0 20.0 0.00 0.00 0.00 57 1007.0
20260505023017 78 203 12.0 18.0 0.00 0.00 0.00 57 1007.0
20260505022016 79 203 12.0 17.0 0.00 0.00 0.00 56 1006.9
20260505021017 79 203 10.0 17.0 0.00 0.00 0.00 55 1006.9
20260505020017 79 203 9.0 14.0 0.00 0.00 0.00 55 1006.9
20260505015017 80 203 9.0 13.0 0.00 0.00 0.00 53 1006.6
20260505014017 80 203 9.0 15.0 0.00 0.00 0.00 52 1006.6
20260505013017 81 203 9.0 15.0 0.00 0.00 0.00 51 1006.8
20260505012017 81 203 11.0 20.0 0.00 0.00 0.00 50 1006.7
20260505011016 82 203 10.0 16.0 0.00 0.00 0.00 50 1006.8
20260505010016 82 203 9.0 15.0 0.00 0.00 0.00 49 1006.9
20260505005017 83 203 8.0 15.0 0.00 0.00 0.00 48 1006.9
20260505004017 83 203 8.0 15.0 0.00 0.00 0.00 47 1006.9
20260505003017 83 203 9.0 14.0 0.00 0.00 0.00 46 1006.9
20260505002016 84 203 10.0 20.0 0.00 0.00 0.00 45 1006.9
20260505001017 84 203 9.0 17.0 0.00 0.00 0.00 45 1006.9
20260505000016 85 203 8.0 15.0 0.00 0.00 0.00 44 1007.0
20260504235016 86 203 8.0 14.0 0.00 0.00 0.00 44 1007.3
20260504234017 86 180 9.0 15.0 0.00 0.00 0.00 43 1007.2
20260504233017 87 203 9.0 15.0 0.00 0.00 0.00 42 1007.3
20260504232017 87 225 8.0 14.0 0.00 0.00 0.00 41 1007.3
20260504231017 87 203 8.0 19.0 0.00 0.00 0.00 41 1007.3
20260504230017 88 203 13.0 24.0 0.00 0.00 0.00 40 1007.4
20260504225017 88 225 10.0 17.0 0.00 0.00 0.00 40 1007.4
20260504224016 88 203 11.0 19.0 0.00 0.00 0.00 40 1007.6
20260504223017 88 225 9.0 18.0 0.00 0.00 0.00 40 1007.6
20260504222016 88 203 10.0 17.0 0.00 0.00 0.00 40 1007.7
20260504221017 88 203 14.0 20.0 0.00 0.00 0.00 41 1007.8
20260504220017 88 203 12.0 21.0 0.00 0.00 0.00 39 1007.8
20260504215017 88 203 9.0 15.0 0.00 0.00 0.00 39 1008.0
20260504214016 89 180 13.0 20.0 0.00 0.00 0.00 39 1008.1
20260504213017 89 180 8.0 15.0 0.00 0.00 0.00 39 1008.4
20260504212017 89 203 10.0 21.0 0.00 0.00 0.00 39 1008.7
20260504211016 89 203 9.0 15.0 0.00 0.00 0.00 40 1008.7
20260504210017 89 225 8.0 16.0 0.00 0.00 0.00 39 1009.1
20260504205017 88 225 8.0 14.0 0.00 0.00 0.00 41 1009.2
20260504204017 88 203 11.0 16.0 0.00 0.00 0.00 41 1009.3
20260504203017 88 225 6.0 13.0 0.00 0.00 0.00 41 1009.5
20260504202017 87 248 9.0 16.0 0.00 0.00 0.00 42 1009.5
20260504201017 88 248 7.0 14.0 0.00 0.00 0.00 43 1009.5
20260504200017 87 203 11.0 21.0 0.00 0.00 0.00 42 1009.9
20260504195017 88 203 6.0 14.0 0.00 0.00 0.00 43 1010.1
20260504194017 87 203 7.0 15.0 0.00 0.00 0.00 43 1010.2
20260504193017 85 203 8.0 15.0 0.00 0.00 0.00 43 1010.4
20260504192017 85 248 7.0 13.0 0.00 0.00 0.00 46 1010.5
20260504191017 84 203 8.0 16.0 0.00 0.00 0.00 46 1010.5
20260504190017 83 203 9.0 15.0 0.00 0.00 0.00 47 1010.7
20260504185017 84 248 7.0 14.0 0.00 0.00 0.00 47 1011.1
20260504184017 82 180 10.0 17.0 0.00 0.00 0.00 49 1011.0
20260504183017 82 203 8.0 15.0 0.00 0.00 0.00 49 1011.4
20260504181017 81 225 8.0 15.0 0.00 0.00 0.00 51 1011.8
20260504180017 80 248 7.0 15.0 0.00 0.00 0.00 51 1011.8
20260504175017 81 225 7.0 14.0 0.00 0.00 0.00 52 1012.2
20260504174017 80 203 7.0 15.0 0.00 0.00 0.00 53 1012.1
20260504173017 80 203 11.0 17.0 0.00 0.00 0.00 53 1012.1
20260504172017 79 203 7.0 16.0 0.00 0.00 0.00 55 1012.4
20260504171017 78 225 9.0 18.0 0.00 0.00 0.00 56 1012.5
20260504151017 70 203 14.0 22.0 0.00 0.00 0.00 68 1012.7
20260504141017 66 203 8.0 13.0 0.00 0.00 0.00 75 1012.9